Time,TemperatureF,DewpointF,PressureIn,WindDirection,WindDirectionDegrees,WindSpeedMPH,WindSpeedGustMPH,Humidity,HourlyPrecipIn,Conditions,Clouds,dailyrainin,SoftwareType,DateUTC
2013-07-08 00:24:00,71.3,71.0,29.84,SE,140,0.0,0.0,98,0.00,,,0.17,weatherlink.com 1.10,2013-07-08 04:24:00,
2013-07-08 00:39:00,71.3,71.0,29.84,SE,140,0.0,1.0,98,0.00,,,0.17,weatherlink.com 1.10,2013-07-08 04:39:00,
2013-07-08 00:54:00,71.3,71.0,29.84,SE,140,0.0,0.0,98,0.00,,,0.17,weatherlink.com 1.10,2013-07-08 04:54:00,
2013-07-08 01:09:00,71.1,71.0,29.84,SE,140,0.0,0.0,98,0.00,,,0.00,weatherlink.com 1.10,2013-07-08 05:09:00,
2013-07-08 01:24:00,70.8,70.0,29.84,SE,140,0.0,0.0,98,0.00,,,0.00,weatherlink.com 1.10,2013-07-08 05:24:00,
2013-07-08 01:39:00,70.8,70.0,29.84,SE,140,0.0,0.0,98,0.00,,,0.00,weatherlink.com 1.10,2013-07-08 05:39:00,
2013-07-08 01:55:00,71.0,70.0,29.84,SE,140,0.0,0.0,98,0.00,,,0.00,weatherlink.com 1.10,2013-07-08 05:55:00,
2013-07-08 02:09:00,71.2,71.0,29.84,SE,140,0.0,0.0,99,0.00,,,0.00,weatherlink.com 1.10,2013-07-08 06:09:00,
2013-07-08 02:24:00,71.3,71.0,29.84,SE,140,0.0,1.0,99,0.00,,,0.00,weatherlink.com 1.10,2013-07-08 06:24:00,
2013-07-08 02:40:00,71.3,71.0,29.84,SE,140,0.0,0.0,99,0.00,,,0.00,weatherlink.com 1.10,2013-07-08 06:40:00,
2013-07-08 02:54:00,71.4,71.0,29.83,SE,140,0.0,1.0,99,0.00,,,0.00,weatherlink.com 1.10,2013-07-08 06:54:00,
2013-07-08 03:10:00,71.4,71.0,29.83,SE,140,0.0,0.0,99,0.00,,,0.00,weatherlink.com 1.10,2013-07-08 07:10:00,
2013-07-08 03:25:00,71.5,71.0,29.83,SE,140,0.0,0.0,99,0.00,,,0.00,weatherlink.com 1.10,2013-07-08 07:25:00,
2013-07-08 03:39:00,71.3,71.0,29.82,SE,140,0.0,0.0,99,0.00,,,0.00,weatherlink.com 1.10,2013-07-08 07:39:00,
2013-07-08 03:55:00,70.9,70.0,29.83,SE,140,0.0,0.0,98,0.00,,,0.00,weatherlink.com 1.10,2013-07-08 07:55:00,
2013-07-08 04:09:00,71.0,71.0,29.83,SE,140,0.0,0.0,99,0.00,,,0.00,weatherlink.com 1.10,2013-07-08 08:09:00,
2013-07-08 04:24:00,70.8,71.0,29.84,SE,140,0.0,0.0,99,0.00,,,0.00,weatherlink.com 1.10,2013-07-08 08:24:00,
2013-07-08 04:40:00,70.7,70.0,29.83,SE,140,0.0,0.0,99,0.00,,,0.00,weatherlink.com 1.10,2013-07-08 08:40:00,
2013-07-08 04:55:00,70.4,70.0,29.84,SE,140,0.0,0.0,99,0.00,,,0.00,weatherlink.com 1.10,2013-07-08 08:55:00,
2013-07-08 05:09:00,70.5,70.0,29.84,SE,140,0.0,0.0,99,0.00,,,0.00,weatherlink.com 1.10,2013-07-08 09:09:00,
2013-07-08 05:24:00,70.5,70.0,29.84,SE,140,0.0,0.0,99,0.00,,,0.00,weatherlink.com 1.10,2013-07-08 09:24:00,
2013-07-08 05:40:00,70.6,70.0,29.85,SE,140,0.0,0.0,99,0.00,,,0.00,weatherlink.com 1.10,2013-07-08 09:40:00,
2013-07-08 05:54:00,70.6,70.0,29.85,SE,140,0.0,0.0,99,0.00,,,0.00,weatherlink.com 1.10,2013-07-08 09:54:00,
2013-07-08 06:10:00,70.9,71.0,29.85,SE,140,0.0,0.0,99,0.00,,,0.00,weatherlink.com 1.10,2013-07-08 10:10:00,
2013-07-08 06:24:00,71.1,71.0,29.86,SE,136,0.0,0.0,99,0.00,,,0.00,weatherlink.com 1.10,2013-07-08 10:24:00,
2013-07-08 06:40:00,71.1,71.0,29.86,SE,135,0.0,0.0,99,0.00,,,0.00,weatherlink.com 1.10,2013-07-08 10:40:00,
2013-07-08 06:55:00,71.3,71.0,29.85,SSW,200,0.0,1.0,99,0.00,,,0.00,weatherlink.com 1.10,2013-07-08 10:55:00,
2013-07-08 07:10:00,71.5,71.0,29.86,SSW,199,0.0,1.0,99,0.00,,,0.00,weatherlink.com 1.10,2013-07-08 11:10:00,
2013-07-08 07:24:00,71.6,71.0,29.86,SSW,199,0.0,1.0,99,0.00,,,0.00,weatherlink.com 1.10,2013-07-08 11:24:00,
2013-07-08 07:40:00,71.8,72.0,29.86,SSW,199,0.0,1.0,99,0.00,,,0.00,weatherlink.com 1.10,2013-07-08 11:40:00,
2013-07-08 07:55:00,72.3,72.0,29.86,SSW,199,0.0,1.0,98,0.00,,,0.00,weatherlink.com 1.10,2013-07-08 11:55:00,
2013-07-08 08:09:00,72.8,72.0,29.87,SSW,199,0.0,0.0,98,0.00,,,0.00,weatherlink.com 1.10,2013-07-08 12:09:00,
2013-07-08 08:25:00,73.4,73.0,29.87,SSW,200,0.0,1.0,97,0.00,,,0.00,weatherlink.com 1.10,2013-07-08 12:25:00,
2013-07-08 08:40:00,73.6,72.0,29.87,SSW,200,0.0,1.0,95,0.01,,,0.01,weatherlink.com 1.10,2013-07-08 12:40:00,
2013-07-08 08:55:00,74.1,72.0,29.87,SSW,199,0.0,1.0,94,0.01,,,0.01,weatherlink.com 1.10,2013-07-08 12:55:00,
2013-07-08 09:09:00,74.4,72.0,29.87,SSW,199,0.0,0.0,93,0.01,,,0.01,weatherlink.com 1.10,2013-07-08 13:09:00,
2013-07-08 09:25:00,74.7,72.0,29.87,SSW,199,0.0,1.0,91,0.01,,,0.01,weatherlink.com 1.10,2013-07-08 13:25:00,
2013-07-08 09:40:00,74.6,72.0,29.87,SSW,199,0.0,1.0,92,0.00,,,0.01,weatherlink.com 1.10,2013-07-08 13:40:00,
2013-07-08 09:55:00,74.6,72.0,29.88,SSW,199,0.0,1.0,92,0.00,,,0.01,weatherlink.com 1.10,2013-07-08 13:55:00,
2013-07-08 10:10:00,74.9,72.0,29.88,SSW,200,0.0,1.0,91,0.00,,,0.01,weatherlink.com 1.10,2013-07-08 14:10:00,
2013-07-08 10:25:00,76.0,73.0,29.88,SSW,199,0.0,1.0,90,0.00,,,0.01,weatherlink.com 1.10,2013-07-08 14:25:00,
2013-07-08 10:40:00,76.3,72.0,29.88,North,355,0.0,1.0,86,0.00,,,0.01,weatherlink.com 1.10,2013-07-08 14:40:00,
2013-07-08 10:54:00,76.8,72.0,29.88,ESE,110,0.0,3.0,86,0.00,,,0.01,weatherlink.com 1.10,2013-07-08 14:54:00,
2013-07-08 11:10:00,77.3,73.0,29.88,NW,315,0.0,1.0,87,0.00,,,0.01,weatherlink.com 1.10,2013-07-08 15:10:00,
2013-07-08 11:25:00,78.7,72.0,29.88,SSE,167,1.0,5.0,81,0.00,,,0.01,weatherlink.com 1.10,2013-07-08 15:25:00,
2013-07-08 11:41:00,78.5,73.0,29.88,ENE,59,0.0,3.0,82,0.00,,,0.01,weatherlink.com 1.10,2013-07-08 15:41:00,
2013-07-08 11:55:00,78.2,73.0,29.88,South,190,1.0,4.0,83,0.00,,,0.01,weatherlink.com 1.10,2013-07-08 15:55:00,
2013-07-08 12:10:00,77.7,73.0,29.88,SSW,201,2.0,3.0,85,0.00,,,0.01,weatherlink.com 1.10,2013-07-08 16:10:00,
2013-07-08 12:25:00,78.7,73.0,29.88,SSE,157,2.0,4.0,83,0.00,,,0.01,weatherlink.com 1.10,2013-07-08 16:25:00,
2013-07-08 12:40:00,79.9,74.0,29.88,NE,39,1.0,3.0,83,0.00,,,0.01,weatherlink.com 1.10,2013-07-08 16:40:00,
2013-07-08 12:56:00,80.5,72.0,29.88,SSW,204,0.0,4.0,76,0.00,,,0.01,weatherlink.com 1.10,2013-07-08 16:56:00,
2013-07-08 13:10:00,80.5,73.0,29.88,South,186,0.0,1.0,77,0.00,,,0.01,weatherlink.com 1.10,2013-07-08 17:10:00,
2013-07-08 13:41:00,78.7,74.0,29.88,NNW,338,0.0,3.0,85,0.01,,,0.02,weatherlink.com 1.10,2013-07-08 17:41:00,
2013-07-08 13:55:00,77.3,74.0,29.87,NNW,338,2.0,4.0,88,0.01,,,0.02,weatherlink.com 1.10,2013-07-08 17:55:00,
2013-07-08 14:11:00,76.4,74.0,29.88,NNW,329,0.0,1.0,92,0.03,,,0.04,weatherlink.com 1.10,2013-07-08 18:11:00,
2013-07-08 14:25:00,76.5,74.0,29.88,West,272,0.0,4.0,91,0.06,,,0.07,weatherlink.com 1.10,2013-07-08 18:25:00,
2013-07-08 14:56:00,78.5,72.0,29.87,South,178,0.0,1.0,81,0.05,,,0.07,weatherlink.com 1.10,2013-07-08 18:56:00,
2013-07-08 15:10:00,79.7,74.0,29.88,South,172,0.0,2.0,83,0.03,,,0.07,weatherlink.com 1.10,2013-07-08 19:10:00,
2013-07-08 15:41:00,79.6,74.0,29.87,SSE,159,1.0,4.0,82,0.00,,,0.07,weatherlink.com 1.10,2013-07-08 19:41:00,
2013-07-08 16:10:00,76.0,74.0,29.88,SSW,210,0.0,7.0,92,0.17,,,0.24,weatherlink.com 1.10,2013-07-08 20:10:00,
2013-07-08 16:41:00,73.1,70.0,29.89,NE,49,0.0,3.0,91,0.36,,,0.43,weatherlink.com 1.10,2013-07-08 20:41:00,
2013-07-08 16:56:00,71.8,70.0,29.89,ENE,78,0.0,2.0,94,0.24,,,0.48,weatherlink.com 1.10,2013-07-08 20:56:00,
2013-07-08 17:10:00,71.7,70.0,29.90,NW,323,0.0,3.0,95,0.24,,,0.48,weatherlink.com 1.10,2013-07-08 21:10:00,
2013-07-08 17:40:00,71.6,70.0,29.90,SE,144,0.0,1.0,96,0.09,,,0.52,weatherlink.com 1.10,2013-07-08 21:40:00,
2013-07-08 17:55:00,71.6,70.0,29.89,SE,144,0.0,1.0,96,0.04,,,0.52,weatherlink.com 1.10,2013-07-08 21:55:00,
2013-07-08 18:25:00,71.7,71.0,29.91,SE,144,0.0,1.0,97,0.01,,,0.52,weatherlink.com 1.10,2013-07-08 22:25:00,
2013-07-08 18:40:00,71.3,70.0,29.91,SE,144,0.0,1.0,96,0.00,,,0.52,weatherlink.com 1.10,2013-07-08 22:40:00,
2013-07-08 19:10:00,70.3,69.0,29.92,SSE,161,0.0,4.0,96,0.00,,,0.52,weatherlink.com 1.10,2013-07-08 23:10:00,
2013-07-08 21:12:00,67.2,66.0,29.96,NNW,338,0.0,2.0,97,0.08,,,0.61,weatherlink.com 1.10,2013-07-09 01:12:00,
2013-07-08 21:40:00,66.5,66.0,29.98,SSE,158,0.0,3.0,97,0.12,,,0.69,weatherlink.com 1.10,2013-07-09 01:40:00,
2013-07-08 22:11:00,66.1,65.0,29.98,SSW,195,0.0,1.0,97,0.09,,,0.71,weatherlink.com 1.10,2013-07-09 02:11:00,
2013-07-08 22:26:00,66.0,65.0,29.98,SSW,195,0.0,2.0,97,0.08,,,0.71,weatherlink.com 1.10,2013-07-09 02:26:00,
2013-07-08 22:41:00,65.8,65.0,29.98,SSW,195,0.0,2.0,98,0.02,,,0.71,weatherlink.com 1.10,2013-07-09 02:41:00,